sat.trackr.live / text

‹ back to catalog

STARLINK-30802

NORAD 58150 · 2023-166A

PAYLOAD ACTIVE UNKNOWN

§ Identity

Operator
Country
US
Launch date
2023-10-29
Launch site
AFWTR
Launch vehicle
Mass (kg)
RCS (m²)

Purposes: comms

External: N2YO · Heavens-Above · Gunter

§ Orbital elements

Epoch: 2026-09-20T15:10:04.984896Z

Period
94.01 min
Inclination
53.1612°
Eccentricity
0.0001386
Mean motion
15.31700607 rev/d
Perigee alt
469.8 km
Apogee alt
471.7 km
Semi-major
6,848.9 km
B*
5.5134e-6
RAAN
32.8478°
Arg perigee
90.9482°
Mean anomaly
269.1678°
Rev number
16,304

§ Raw data

STARLINK-308021 58150U 23166A   26263.63200214 -.00000194  00000+0  55134-5 0  99912 58150  53.1612  32.8478 0001386  90.9482 269.1678 15.31700607163044

JSON: /api/v1/satellites/58150 · /tle

For live sub-satellite position, see the globe view (requires WebGL).

§ Visibility from observer

Set your observer location to see the next 7 days of passes ≥ 10°. The values pass through the URL so the page stays shareable.

No JS? Fill the form by hand. The geolocation button needs JavaScript.